[[{"header":{"parameterUnit":"m.s-1","parameterCategory":1,"la1":30.2992,"la2":30.254,"lo1":-89.0895,"lo2":-89.0443,"dy":0.0025,"dx":0.0025,"nx":19,"ny":19,"refTime":"2026-04-11T09:00:00:Z","depth":0,"parameterNumber":2,"parameterNumberName":"U-component_of_WINDS"},"data":[0,0,0,-4.8784,-4.8787,-4.8931,-4.8931,-4.9128,-4.913,0,0,0,0,0,0,0,0,0,0,0,-4.8751,-4.8753,-4.8784,-4.8787,-4.8931,-4.8932,-4.9128,-4.913,0,0,0,0,0,0,0,0,0,0,0,-4.875,-4.8752,-4.8754,-4.8788,-4.8931,-4.8932,-4.9127,-4.9014,0,0,0,0,0,0,0,0,0,0,-4.8872,-4.8852,-4.8752,-4.8754,-4.8789,-4.8931,-4.8932,-4.9008,-4.9021,-4.9069,0,-4.9116,0,-4.9126,-4.9144,-4.9145,0,0,0,-4.878,-4.8841,-4.8871,-4.8755,-4.879,-4.8931,-4.8864,-4.9015,-4.9029,-4.9086,-4.9119,-4.9126,-4.913,-4.9145,-4.9146,-4.9453,-4.9455,0,0,-4.8772,-4.8782,-4.8861,-4.8881,-4.8862,-4.8859,-4.8869,-4.9023,-4.9059,-4.9119,-4.913,-4.9133,-4.9147,-4.9148,-4.9452,-4.9454,0,0,0,-4.8754,-4.8777,-4.8802,-4.8873,-4.8898,-4.8864,-4.8874,-4.9052,-4.906,-4.9132,-4.9135,-4.9148,-4.9151,-4.945,-4.9452,-4.955,0,0,0,-4.8749,-4.8766,-4.8799,-4.8807,-4.8896,-4.8978,-4.89,-4.9049,-4.9066,-4.9134,-4.9148,-4.9153,-4.9448,-4.9451,-4.9543,-4.9593,0,0,0,-4.8738,-4.8765,-4.8789,-4.8807,-4.887,-4.8975,-4.8991,-4.9053,-4.9069,-4.9145,-4.9153,-4.9446,-4.945,-4.9537,-4.9583,-4.9675,0,0,0,-4.8729,-4.8875,-4.8791,-4.8954,-4.8869,-4.9036,-4.899,-4.9114,-4.9191,-4.9149,-4.9448,-4.9452,-4.9535,-4.9577,-4.9668,-4.9752,-4.9789,0,0,-4.8918,-4.8898,-4.8993,-4.8922,-4.9107,-4.9013,-4.9211,-4.9271,-4.9269,-4.9391,-4.9399,-4.9545,-4.9582,-4.9673,-4.9996,-5.0025,0,0,0,-4.9056,-4.9124,-4.9171,-4.9245,-4.9296,-4.9342,-4.9372,-4.9394,-4.9498,-4.9335,-4.9604,-4.9626,-4.9679,-4.9718,-4.9743,-4.9786,-4.9472,-4.9471,-4.9471,-4.9335,-4.9325,-4.9481,-4.9488,-4.9561,-4.959,-4.9647,-4.9681,-4.965,-4.9714,-4.9749,-4.9946,-4.9993,-5.0011,-5.0056,-4.9795,-4.9795,-4.9796,-4.9796,-4.9608,-4.9702,-4.9657,-4.9792,-4.978,-4.9892,-4.9925,-4.9899,-5.0,-4.9919,-4.9965,-4.9874,-5.0044,-5.0082,-4.9803,-4.9802,-4.9801,-4.98,-4.98,-4.9787,-4.983,-4.9856,-4.9961,-5.0044,-5.0046,-5.0145,-5.0131,-5.0118,-5.0164,-5.0197,-5.0196,-5.0189,-5.0182,-5.0182,-5.0183,-5.0184,-5.0184,-5.0185,-4.9962,-4.9988,-5.0074,-5.014,-5.0185,-5.0242,-5.0273,-5.0316,-5.0359,-5.0341,-5.0341,-5.0301,-5.0064,-5.0002,-5.0195,-5.0193,-5.0192,-5.0191,-5.019,-5.0237,-5.0172,-5.0305,-5.0351,-5.0425,-5.0506,-5.0488,-5.0577,-5.0611,-5.0659,-5.0611,-5.0439,-5.0416,-5.0396,-5.0345,-5.0615,-5.0615,-5.0615,-5.0615,-5.0385,-5.0374,-5.0505,-5.0578,-5.0648,-5.0644,-5.0792,-5.0817,-5.0832,-5.0851,-5.0811,-5.0743,-5.0723,-5.0712,-5.0685,-5.0637,-5.0975,-5.0976,-5.0976,-5.0552,-5.0546,-5.0675,-5.0691,-5.0748,-5.0797,-5.0934,-5.1017,-5.1022,-5.099,-5.0865,-5.085,-5.074,-5.0706,-5.0668,-5.0627,-5.0538,0,0]},{"header":{"parameterUnit":"m.s-1","parameterCategory":1,"la1":30.2992,"la2":30.254,"lo1":-89.0895,"lo2":-89.0443,"dy":0.0025,"dx":0.0025,"nx":19,"ny":19,"refTime":"2026-04-11T09:00:00:Z","depth":0,"parameterNumber":3,"parameterNumberName":"V-component_of_WINDS"},"data":[0,0,0,2.2445,2.2447,2.2507,2.2507,2.259,2.2591,0,0,0,0,0,0,0,0,0,0,0,2.243,2.2431,2.2445,2.2447,2.2507,2.2507,2.259,2.2591,0,0,0,0,0,0,0,0,0,0,0,2.243,2.2431,2.2432,2.2447,2.2507,2.2507,2.259,2.2543,0,0,0,0,0,0,0,0,0,0,2.2483,2.2472,2.2431,2.2432,2.2447,2.2507,2.2507,2.254,2.2546,2.2566,0,2.2583,0,2.2588,2.2597,2.2597,0,0,0,2.2445,2.2467,2.2481,2.2432,2.2448,2.2507,2.2479,2.2543,2.2549,2.2573,2.2584,2.2587,2.259,2.2598,2.2598,2.2717,2.2718,0,0,2.2442,2.2443,2.2477,2.2485,2.2475,2.2477,2.2481,2.2547,2.256,2.2584,2.2589,2.2591,2.2598,2.2599,2.2717,2.2717,0,0,0,2.2433,2.2441,2.2452,2.2482,2.2492,2.2479,2.2484,2.2557,2.2561,2.259,2.2592,2.2599,2.26,2.2716,2.2717,2.275,0,0,0,2.2431,2.2436,2.2451,2.2452,2.2491,2.2525,2.2492,2.2556,2.2563,2.2592,2.2599,2.2601,2.2715,2.2716,2.2748,2.2766,0,0,0,2.2425,2.2435,2.2444,2.2452,2.2478,2.2524,2.2531,2.2558,2.2565,2.2598,2.2601,2.2715,2.2716,2.2746,2.2763,2.28,0,0,0,2.242,2.2473,2.2445,2.2505,2.2477,2.2543,2.2531,2.258,2.2611,2.2599,2.2715,2.2717,2.2745,2.2761,2.2797,2.2832,2.2846,0,0,2.2487,2.2481,2.2516,2.2493,2.2564,2.2534,2.261,2.2638,2.2641,2.2692,2.2695,2.2749,2.2763,2.2799,2.292,2.2932,0,0,0,2.2538,2.2564,2.2582,2.2612,2.2634,2.2656,2.2672,2.2683,2.2727,2.2667,2.2771,2.2779,2.28,2.2817,2.2827,2.2846,2.2724,2.2724,2.2724,2.2636,2.2636,2.2695,2.2702,2.2732,2.2748,2.2773,2.2791,2.2781,2.2806,2.2822,2.2896,2.2915,2.2922,2.2942,2.2839,2.2839,2.2839,2.2839,2.2736,2.2773,2.276,2.2813,2.2814,2.2858,2.2877,2.287,2.2913,2.2883,2.2902,2.2872,2.2934,2.2952,2.2842,2.2841,2.2841,2.2841,2.284,2.2802,2.282,2.2831,2.2876,2.291,2.2916,2.2958,2.2956,2.2955,2.2974,2.2992,2.2991,2.2992,2.2982,2.2982,2.2982,2.2983,2.2983,2.2983,2.2867,2.2878,2.2914,2.2942,2.2962,2.2988,2.3006,2.3026,2.3048,2.3043,2.3044,2.3034,2.2939,2.2917,2.2987,2.2986,2.2986,2.2985,2.2985,2.2972,2.2948,2.3003,2.3022,2.3057,2.3092,2.3089,2.313,2.3146,2.3168,2.3154,2.3083,2.3077,2.307,2.3051,2.3152,2.3152,2.3152,2.3152,2.303,2.3026,2.3082,2.3114,2.3145,2.3148,2.3212,2.3227,2.3238,2.3249,2.3234,2.3208,2.3201,2.3199,2.3189,2.3172,2.3301,2.3301,2.3301,2.3096,2.3095,2.3149,2.3159,2.3186,2.321,2.3271,2.331,2.3318,2.3308,2.3258,2.3252,2.3211,2.3197,2.3187,2.3171,2.314,0,0]}]]